FW7576 Weather Reports


time (UTC)temp
C
wind
direction
speed
KPH
gust
KPH
rain 1hr
cm
rain 24hr
cm
rain mn
cm
humidity
%
barometer
mb
20260504201537 25 266 12.9 35.4 0.00 0.00 0.00 28 997.4
20260504200042 25 251 16.1 33.8 0.00 0.00 0.00 28 997.4
20260504194540 25 262 12.9 30.6 0.00 0.00 0.00 29 997.5
20260504193041 25 233 12.9 37.0 0.00 0.00 0.00 27 997.6
20260504191541 25 233 12.9 32.2 0.00 0.00 0.00 28 997.9
20260504190039 25 232 14.5 38.6 0.00 0.00 0.00 29 997.7
20260504184537 24 278 11.3 35.4 0.00 0.00 0.00 29 998.0
20260504183041 24 216 16.1 37.0 0.00 0.00 0.00 29 998.4
20260504181543 23 264 20.9 37.0 0.00 0.00 0.00 29 998.3
20260504180039 23 222 12.9 40.2 0.00 0.00 0.00 29 998.4
20260504174538 23 257 14.5 32.2 0.00 0.00 0.00 29 998.5
20260504173035 23 250 22.5 38.6 0.00 0.00 0.00 27 998.7
20260504171535 23 226 14.5 33.8 0.00 0.00 0.00 28 999.0
20260504081548 9 218 1.6 4.8 0.00 0.00 0.00 79 1003.1
20260504044535 12 247 3.2 3.2 0.00 0.00 0.00 66 1004.4
20260504043040 12 221 3.2 4.8 0.00 0.00 0.00 66 1004.3
20260504041540 12 221 1.6 4.8 0.00 0.00 0.00 64 1004.4
20260504040041 12 226 3.2 4.8 0.00 0.00 0.00 63 1004.5
20260504034538 12 225 1.6 3.2 0.00 0.00 0.00 64 1004.6
20260504033036 12 219 1.6 3.2 0.00 0.00 0.00 64 1004.8
20260504031535 12 0 0.0 1.6 0.00 0.00 0.00 65 1004.8
20260504030035 12 0 0.0 1.6 0.00 0.00 0.00 64 1004.9
20260504024534 13 219 0.0 1.6 0.00 0.00 0.00 62 1004.8
20260504023040 13 0 0.0 1.6 0.00 0.00 0.00 59 1004.8
20260504021538 14 0 0.0 0.0 0.00 0.00 0.00 58 1004.8
20260504020053 15 0 0.0 1.6 0.00 0.00 0.00 56 1004.7
20260504014553 15 0 0.0 0.0 0.00 0.00 0.00 53 1004.5
20260504013044 16 0 0.0 1.6 0.00 0.00 0.00 50 1004.7
20260504011540 17 0 0.0 3.2 0.00 0.00 0.00 47 1004.6
20260504010044 18 263 3.2 12.9 0.00 0.00 0.00 45 1004.4
20260504004555 18 257 6.4 17.7 0.00 0.00 0.00 44 1004.4
20260504003037 18 242 8.0 16.1 0.00 0.00 0.00 43 1004.3
20260504001550 19 208 8.0 16.1 0.00 0.00 0.00 43 1004.2
20260504000035 19 285 9.7 27.4 0.00 0.00 0.00 42 1004.2
20260503234540 19 292 9.7 25.7 0.00 0.00 0.00 42 1004.2
20260503233041 19 228 12.9 24.1 0.00 0.00 0.00 41 1004.2
20260503231536 19 266 11.3 29.0 0.00 0.00 0.00 42 1004.3
20260503230040 19 241 12.9 37.0 0.00 0.00 0.00 42 1004.5
20260503224536 19 207 11.3 27.4 0.00 0.00 0.00 42 1004.4
20260503223040 19 238 16.1 30.6 0.00 0.00 0.00 42 1004.6
20260503221538 19 256 14.5 30.6 0.00 0.00 0.00 42 1004.8
20260503220045 19 257 11.3 32.2 0.00 0.00 0.00 43 1004.7
20260503214535 18 240 16.1 38.6 0.00 0.00 0.00 43 1004.9
20260503213035 18 246 17.7 35.4 0.00 0.00 0.00 42 1005.1
20260503211541 18 240 20.9 38.6 0.00 0.00 0.00 42 1005.0
20260503210039 18 241 19.3 35.4 0.00 0.00 0.00 44 1005.2
20260503204539 18 229 16.1 33.8 0.00 0.00 0.00 48 1005.6
20260503203052 17 212 19.3 37.0 0.00 0.00 0.00 50 1006.0